SCP
0 0 0 0 0 0 0 0 0 0 0 0 0 0 0 0 0 0 0 0 0 0 0 0 0 0 0 0 0 0 0 0 0 0 0 0 0 0 0 0 0 0 0
0 0 0 0 0 0 0 0 0 0 0 0 0 0 0 0 0 0 0 0 0 0 0 0 0 0 0 0 0 0 0 0 0 0 0 0 0 0 0 0 0 0 0
0 0 0 0 0 0 0 0 0 0 0 0 0 0 0 0 0 0 0 0 0 0 0 0 0 0 0 0 0 0 0 0 0 0 0 0 0 0 0 0 0 0 0
0 0 0 0 0 0 0 0 0 0 0 0 0 0 0 0 0 0 0 0 0 0 0 0 0 0 0 0 0 0 0 0 0 0 0 0 0 0 0 0 0 0 0
0 0 0 0 0 0 0 0 0 0 0 0 0 0 0 -0 0 0 0 0 0 0 0 0 0 0 0 0 0 0 0 0 0 0 0 0 0 0 0 0 0 0 0
0 0 0 0 0 0 0 0 0 0 0 0 0 0 0 0 0 0 0 0 0 0 0 0 0 0 0 0 0 0 0 0 0 0 0 0 0 0 0 0 0 0 0
0 0 0 0 0 0 0 0 0 0 0 0 0 0 0 0 0 0 0 0 0 0 0 0 0 0 0 0 0 0 0 0 0 0 0 0 0 0 0 0 0 0 0
0 0 0 0 0 0 0 0 0 0 0 0 0 0 0 0 0 0 0 0 0 0 0 0 0 0 0 0 0 0 0 0 0 0 0 0 0 0 0 0 0 0 0
0 0 0 0 0 0 0 0 0 0 0 0 0 0 0 0 0 0 0 0 0 0 0 0 0 0 0 0 0 0 0 0 0 0 0 0 0 0 0 0 0 0 0
0 0 0 0 0 0 0 0 0 0 0 0 0 0 0 0 0 0 0 0 0 0 0 0 0 0 0 0 0 0 0 0 0 0 0 0 0 0 0 0 0 0 0
0 0 0 0 0 0 0 0 0 0 0 0 0 0 0 0 0 0 0 0 0 0 0 0 0 0 0 0 0 0 0 0 0 0 0 0 0 0 0 0 0 0 0
0 0 0 0 0 0 0 0 0 0 0 0 0 0 0 0 0 0 0 0 0 0 0 0 0 0 0 0 0 0 0 0 0 0 0 0 0 0 0 0 0 0 0
0 0 0 0 0 0 0 0 0 0 0 0 0 0 0 0 0 0 0 0 0 0 0 0 0 0 0 0 0 0 0 0 0 0 0 0 0 0 0 0 0 0 0
0 0 0 0 0 0 0 0 0 0 0 0 0 0 0 0 0 0 0 0 0 0 0 0 0 0 0 0 0 0 0 0 0 0 0 0 0 0 0 0 0 0 0
0 0 0 0 0 0 0 0 0 0 0 0 0 0 0 0 0 0 0 0 0 0 0 0 0 0 0 0 0 0 0 0 0 0 0 0 0 0 0 0 0 0 0
0 0 0 0 0 0 0 0 0 0 0 0 0 0 0 0 0 0 0 0 0 0 0 0 0 0 0 0 0 0 0 0 0 0 0 0 0 0 0 0 0 0 0
0 0 0 0 0 0 0 0 0 0 0 0 0 0 0 0 0 0 0 0 0 0 0 0 0 0 0 0 0 0 0 0 0 0 0 0 0 0 0 0 0 0 0
0 0 0 0 0 0 0 0 0 0 0 0 0 0 0 0 0 0 0 0 0 0 0 0 0 0 0 0 0 0 0 0 0 0 0 0 0 0 0 0 0 0 0
0 0 0 0 0 0 0 0 0 0 0 0 0 0 0 0 0 0 0 0 0 0 0 0 0 0 0 0 0 0 0 0 0 0 0 0 0 0 0 0 0 0 0
0 0 0 0 0 0 0 0 0 0 0 0 0 0 0 0 0 0 0 0 0 0 0 0 0 0 0 0 0 0 0 0 0 0 0 0 0 0 0 0 0 0 0
0 0 0 0 0 0 0 0 0 0 0 0 0 0 0 0 0 0 0 0 0 0 0 0 0 0 0 0 0 0 0 0 0 0 0 0 0 0 0 0 0 0 0
0 0 0 0 0 0 0 0 0 0 0 0 0 0 0 0 0 0 0 0 0 0 0 0 0 0 0 0 0 0 0 0 0 0 0 0 0 0 0 0 0 0 0
0 0 0 0 0 0 0 0 0 0 0 0 0 0 0 0 0 0 0 0 0 0 0 0 0 0 0 0 0 0 0 0 0 0 0 0 0 0 0 0 0 0 0
0 0 0 0 0 0 0 0 0 0 0 0 0 0 0 0 0 0 0 0 0 0 0 0 0 0 0 0 0 0 0 0 0 0 0 0 0 0 0 0 0 0 0
0 0 0 0 0 0 0 0 0 0 0 0 0 0 0 0 0 0 0 0 0 0 0 0 0 0 0 0 0 0 0 0 0 0 0 0 0 0 0 0 0 0 0
0 0 0 0 0 0 0 0 0 0 0 0 0 0 0 0 0 0 0 0 0 0 0 0 0 0 0 0 0 0 0 0 0 0 0 0 0 0 0 0 0 0 0
Wind_Speed
8 7 7 7 7 7 7 6 6 6 4 3 3 3 3 3 4 4 5 5 5 5 5 4 5 4 4 4 4 3 3 3 2 2 3 4 4 5 4 4 4 5 6
9 8 8 8 8 8 7 6 6 5 4 3 3 3 3 3 4 4 5 5 5 5 4 5 4 4 3 4 4 3 2 3 2 1 0 2 4 3 4 4 4 5 4
10 10 9 9 8 8 7 5 5 6 5 4 3 4 4 3 3 3 3 4 5 5 5 5 4 4 4 4 4 3 3 2 3 4 3 2 2 2 3 5 4 5 4
10 10 10 10 9 8 7 6 6 6 6 5 4 4 3 3 3 3 3 4 5 5 5 5 4 4 4 4 4 4 3 2 2 3 3 4 4 2 2 3 4 5 5
11 11 11 10 9 9 7 6 6 6 5 5 5 4 3 3 3 3 4 4 4 5 5 4 4 4 4 5 5 4 4 3 3 3 2 3 2 3 2 2 2 3 4
11 11 10 9 8 8 7 7 7 6 5 5 5 5 5 4 5 4 3 3 3 3 5 4 4 4 4 4 4 4 5 4 5 4 4 3 3 3 3 2 2 2 3
11 11 11 11 10 9 9 8 7 7 6 6 5 5 5 5 4 4 3 2 3 3 3 3 4 4 4 4 4 4 4 5 5 4 4 4 4 4 3 3 2 2 2
11 11 12 11 11 10 9 9 8 7 6 6 5 5 5 3 3 3 3 3 2 3 3 3 4 4 4 4 4 3 4 4 4 5 4 3 4 4 3 3 3 1 2
11 11 11 11 11 10 10 9 8 7 7 6 6 5 5 4 4 4 4 3 3 3 3 3 4 4 4 4 4 3 4 4 4 4 4 4 3 3 4 3 4 4 2
11 12 11 11 11 10 9 9 8 7 7 6 6 4 5 5 4 4 4 4 4 3 4 3 3 4 4 3 3 3 3 4 4 3 4 4 3 3 3 3 3 4 4
11 11 11 11 10 10 10 9 8 8 7 7 7 7 6 5 5 4 4 4 4 4 4 3 3 3 3 3 3 3 3 3 3 3 3 4 4 3 3 3 3 3 3
10 11 11 10 10 10 10 9 9 8 7 7 7 7 6 6 5 5 4 4 4 3 3 3 3 3 3 3 3 3 3 3 3 3 3 3 3 3 3 3 3 3 4
10 10 11 10 10 10 10 10 9 9 8 8 7 7 7 6 6 5 4 4 4 4 3 3 3 3 3 2 2 2 2 3 3 3 4 4 4 3 3 3 3 3 3
10 10 10 10 10 10 10 10 9 9 8 8 8 7 7 6 6 5 5 4 4 4 4 3 3 3 2 2 2 2 2 3 3 4 4 5 5 5 5 3 4 4 3
10 11 10 10 10 11 10 10 10 9 9 9 8 7 7 6 6 5 5 4 4 3 3 3 3 3 2 2 2 2 2 2 3 4 4 6 6 8 6 5 5 5 4
11 11 11 10 11 11 10 10 10 10 9 9 8 7 7 6 6 5 5 5 4 4 4 4 4 3 3 4 3 2 1 1 2 2 3 3 3 4 4 5 6 7 6
11 11 11 11 11 11 11 11 11 10 9 9 8 8 7 7 6 6 6 5 5 4 4 4 4 3 4 4 2 1 1 1 2 2 2 2 2 2 3 1 1 2 3
11 11 10 11 10 10 10 10 10 10 10 9 8 8 7 7 6 6 6 5 5 5 4 4 4 3 4 4 3 1 1 1 1 2 2 2 3 4 5 4 4 4 4
10 9 10 10 10 10 10 11 10 10 10 9 8 8 8 7 7 7 6 5 5 5 4 4 4 4 4 4 3 3 1 1 1 2 3 3 3 5 6 5 4 4 3
8 8 9 10 10 10 11 11 11 10 10 9 8 8 7 7 7 7 6 5 5 5 4 4 4 3 3 4 3 3 1 1 0 1 1 3 4 5 6 4 4 5 5
8 9 9 9 9 10 11 11 10 10 9 8 8 8 7 7 7 6 6 5 5 5 4 4 3 3 2 5 3 2 2 1 1 0 0 1 3 3 5 6 5 6 8
9 9 9 8 9 10 11 10 9 8 8 8 8 8 8 7 6 6 6 6 6 6 5 4 4 2 3 2 3 2 2 3 2 1 1 1 2 2 4 4 5 7 8
8 8 9 9 8 9 9 10 9 9 9 9 9 8 8 7 6 7 7 6 5 4 4 4 3 3 2 3 4 3 2 2 2 1 2 2 2 3 3 2 5 6 5
8 8 9 9 8 8 8 8 9 9 10 10 9 8 8 7 6 5 5 5 5 5 4 4 3 3 3 2 2 3 3 4 3 2 1 2 3 3 3 3 3 3 4
7 8 8 9 9 9 8 8 9 10 10 9 8 7 7 6 6 5 3 4 4 3 4 4 3 3 3 2 1 1 2 1 1 2 2 2 2 2 2 3 4 4 4
8 8 8 8 9 9 8 8 8 9 10 8 7 6 6 5 5 5 4 3 1 3 2 1 1 1 1 3 3 2 1 0 1 3 3 3 3 3 3 4 4 5 5
Wind_Direction
162 157 160 160 156 151 150 145 148 144 143 135 132 121 107 97 84 71 64 62 60 57 59 52 53 43 52 44 49 60 79 68 62 114 113 102 79 68 65 46 48 59 54
166 163 167 169 165 159 157 157 156 152 144 130 126 120 106 95 81 75 68 58 55 52 54 57 63 59 61 55 48 46 46 66 25 347 161 133 125 83 67 62 53 52 55
178 171 171 170 168 167 164 164 162 155 149 145 137 136 129 129 118 99 79 57 55 56 52 54 57 55 57 57 49 46 41 49 49 20 350 351 50 99 90 64 58 54 47
185 179 176 173 173 171 167 169 167 159 157 162 157 150 143 128 107 96 96 89 70 66 57 58 59 59 59 62 54 50 47 35 48 57 27 24 20 338 107 99 73 62 52
186 183 181 176 175 171 170 170 165 160 160 165 154 164 146 127 119 119 113 97 78 67 65 60 61 63 61 59 55 51 42 46 36 41 45 47 36 356 4 73 76 77 60
183 182 177 174 174 169 168 169 166 159 163 169 167 162 144 141 134 132 121 110 94 79 73 66 66 65 62 62 58 62 59 53 51 44 42 32 25 17 20 37 62 69 68
179 178 174 173 174 173 172 171 169 168 171 172 169 160 154 155 146 141 131 119 102 91 80 77 72 69 65 65 64 67 63 61 56 49 45 42 35 22 8 12 35 55 87
179 177 176 176 175 175 177 177 173 171 170 172 167 165 156 160 140 136 126 120 102 91 89 88 79 75 71 72 69 66 63 59 57 54 50 47 43 27 18 8 352 7 80
178 178 176 176 177 177 178 179 176 173 172 171 166 163 157 150 143 141 127 117 110 106 103 97 94 87 77 69 72 67 67 56 50 50 53 45 50 32 24 12 355 346 355
177 176 176 177 177 174 175 176 178 176 175 167 161 157 157 149 145 139 132 126 117 116 115 106 100 98 93 85 75 70 59 65 64 41 40 37 40 37 28 15 10 358 346
174 173 174 176 176 172 173 175 176 174 170 166 162 159 154 150 149 143 135 135 131 132 127 114 108 102 99 95 90 75 68 56 62 57 51 46 33 28 26 14 12 8 355
170 169 170 173 175 176 175 175 174 172 169 168 164 157 152 152 154 145 141 142 138 138 131 121 115 107 103 90 80 75 66 58 54 49 43 43 42 26 18 3 5 4 348
166 165 167 173 176 176 175 175 174 172 167 164 160 158 158 156 153 147 147 148 146 141 139 133 124 115 107 102 87 76 65 60 51 40 35 32 30 24 25 2 3 356 351
169 168 169 174 175 176 174 174 170 168 164 162 162 161 157 156 157 154 152 151 147 144 140 137 132 126 117 106 96 87 71 65 57 46 39 32 25 16 9 4 2 353 345
175 174 174 174 174 174 173 173 168 167 166 164 165 163 157 156 159 157 154 148 144 145 140 139 132 122 117 78 56 81 79 72 67 59 54 48 42 30 14 4 357 351 342
181 179 177 175 176 175 172 169 169 168 168 168 164 156 159 157 157 158 154 147 151 157 152 149 137 128 101 78 40 351 87 74 70 68 65 72 66 58 55 34 12 359 350
183 181 179 179 180 177 173 173 171 167 169 167 161 163 163 160 161 160 154 157 161 160 160 151 141 135 116 115 110 344 339 58 44 32 42 39 39 349 14 41 214 28 5
184 183 180 178 177 170 170 171 166 168 170 170 167 167 166 162 161 163 161 164 159 156 163 153 149 143 127 131 141 223 221 88 67 33 14 5 10 19 347 336 342 355 356
183 179 178 173 169 166 167 166 167 169 172 172 172 171 167 164 163 165 166 166 161 159 164 154 159 161 145 139 162 229 180 146 62 40 19 358 4 21 333 315 327 330 337
169 166 168 166 166 164 166 168 169 170 173 172 172 168 167 166 168 167 166 162 161 162 164 159 167 166 152 134 162 240 222 215 134 60 55 46 7 5 334 318 324 325 332
158 158 161 163 164 163 166 170 169 173 169 164 162 162 166 170 168 163 163 161 160 163 168 158 158 161 148 142 152 235 264 271 271 278 320 54 43 355 337 319 324 333 319
154 158 158 158 160 165 170 168 169 164 158 157 160 163 165 164 163 160 163 165 161 164 167 166 162 166 156 151 154 177 270 312 281 289 314 46 43 339 319 314 335 320 304
154 157 156 153 155 164 172 168 163 160 158 159 162 163 163 163 163 164 166 166 169 175 177 178 178 174 167 151 154 175 201 252 272 317 26 1 312 284 280 300 308 301 301
154 157 157 155 154 161 171 165 158 162 162 164 165 164 165 164 164 169 173 174 177 181 186 187 189 185 180 185 178 185 189 191 216 235 191 214 243 258 292 299 289 300 315
156 158 161 160 158 161 164 157 159 162 163 165 165 164 166 164 163 166 173 184 183 189 192 193 194 197 201 178 167 225 216 230 244 265 255 263 273 287 299 304 307 306 305
157 158 160 161 159 159 159 156 161 167 166 166 164 163 164 164 166 164 154 89 107 113 122 68 220 173 111 118 147 181 264 328 256 256 256 269 283 293 300 302 303 304 305